Weather History for Wolf Point, MT

Change the Weather History Date:

Monday, September 30, 2013

  Actual Average Record
Temperature  
Mean Temperature 53 °F -  
Max Temperature 71 °F 67 °F 84 °F (2011)
Min Temperature 34 °F 35 °F 19 °F (2003)
Degree Days  
Heating Degree Days 12    
Cooling Degree Days 0    
Growing Degree Days 1 (Base 50)    
Moisture  
Dew Point 34 °F    
Average Humidity 56    
Maximum Humidity 86    
Minimum Humidity 30    
Precipitation  
Precipitation 0.02 in 0.03 in 0.08 in (2014)
Month to date precipitation 1.15 1.01  
Year to date precipitation 12.79 10.68  
Sea Level Pressure  
Sea Level Pressure 29.54 in    
Wind  
Wind Speed 5 mph (WSW)    
Max Wind Speed 20 mph    
Max Gust Speed 30 mph    
Visibility 10 miles    
Events Rain    
T = Trace of Precipitation, MM = Missing Value Source: NWS Daily Summary

Daily Weather History Graph

Daily Weather History Graph

Search for Another Location

Airport:

Trip Planner

Search our weather history database for the weather conditions in past years. The results will help you decide how hot, cold, wet, or windy it might be!

Date:

Astronomy

Sep. 30, 2013 Rise Set
Actual Time 7:00 AM MDT 6:42 PM MDT
Civil Twilight 6:29 AM MDT 7:13 PM MDT
Nautical Twilight 5:53 AM MDT 7:49 PM MDT
Astronomical Twilight 5:16 AM MDT 8:26 PM MDT
Moon 2:23 AM MDT (9/30) 4:29 PM MDT (9/30)
Length of Visible Light 12h 44m
Length of Day
11h 42m
Waning Crescent, 18% of the Moon is Illuminated
Sep 30
Waning Crescent
Oct 4
New
Oct 11
First Quarter
Oct 18
Full
Oct 26
Last Quarter

Hourly Weather History & Observations

Time (MDT) Temp. Windchill Dew Point Humidity Pressure Visibility Wind Dir Wind Speed Gust Speed Precip Events Conditions
12:53 AM 44.1 °F - 32.0 °F 63% 29.57 in 10.0 mi Calm Calm - N/A   Clear
1:53 AM 37.9 °F - 32.0 °F 79% 29.57 in 10.0 mi Calm Calm - N/A   Clear
2:53 AM 37.9 °F - 32.0 °F 79% 29.58 in 10.0 mi Calm Calm - N/A   Clear
3:53 AM 37.0 °F - 32.0 °F 82% 29.57 in 10.0 mi Calm Calm - N/A   Clear
4:53 AM 34.0 °F - 30.0 °F 85% 29.56 in 10.0 mi Calm Calm - N/A   Clear
5:53 AM 36.0 °F - 30.9 °F 82% 29.55 in 10.0 mi Calm Calm - N/A   Clear
6:53 AM 36.0 °F - 32.0 °F 86% 29.53 in 10.0 mi Calm Calm - N/A   Clear
7:53 AM 39.0 °F - 34.0 °F 82% 29.52 in 10.0 mi Calm Calm - N/A   Clear
8:53 AM 44.1 °F 42.5 °F 37.0 °F 76% 29.51 in 10.0 mi ENE 3.5 mph - N/A   Unknown
9:53 AM 54.0 °F - 39.9 °F 59% 29.49 in 10.0 mi Calm Calm - N/A   Clear
10:53 AM 64.0 °F - 39.0 °F 40% 29.45 in 10.0 mi SW 11.5 mph - N/A   Clear
11:53 AM 68.0 °F - 41.0 °F 37% 29.44 in 10.0 mi SW 13.8 mph - N/A   Clear
12:53 PM 68.0 °F - 41.0 °F 37% 29.45 in 10.0 mi West 16.1 mph - N/A   Clear
1:53 PM 59.0 °F - 46.9 °F 64% 29.50 in 6.0 mi WSW 13.8 mph 20.7 mph 0.01 in Rain Light Rain
2:53 PM 57.9 °F - 46.9 °F 67% 29.51 in 10.0 mi SSW 11.5 mph 20.7 mph 0.00 in   Overcast
3:53 PM 59.0 °F - 46.0 °F 62% 29.51 in 10.0 mi SW 11.5 mph 20.7 mph N/A   Mostly Cloudy
4:53 PM 63.0 °F - 34.0 °F 34% 29.52 in 10.0 mi West 17.3 mph 29.9 mph 0.01 in   Clear
5:53 PM 62.1 °F - 30.9 °F 31% 29.56 in 10.0 mi WSW 13.8 mph - N/A   Clear
6:53 PM 59.0 °F - 28.9 °F 32% 29.56 in 10.0 mi WSW 13.8 mph 21.9 mph N/A   Clear
7:53 PM 57.9 °F - 28.9 °F 33% 29.60 in 10.0 mi WSW 11.5 mph - N/A   Clear
8:53 PM 57.9 °F - 27.0 °F 31% 29.61 in 10.0 mi West 19.6 mph 27.6 mph N/A   Clear
9:53 PM 57.0 °F - 26.1 °F 30% 29.62 in 10.0 mi West 17.3 mph 24.2 mph N/A   Clear
10:53 PM 54.0 °F - 27.0 °F 35% 29.64 in 10.0 mi West 12.7 mph - N/A   Clear
11:53 PM 53.1 °F - 27.0 °F 37% 29.65 in 10.0 mi West 17.3 mph 24.2 mph N/A   Clear